Погода в Полийиросе

Греция     40°22′51″N   23°26′42″E
темп.,
°C
ветер,
м/с
пор.,
м/с
влажн.,
%
обл.,
%
осадки,
мм/ч
давл.,
гПа
погр.,
м
16 апреля, пт
пт1600:00+6юз11673 0.0 101810
03:00+5св117174 0.0 101810
06:00+5в119037 0.0 101811
09:00+8в228254 0.0 1019402
12:00+10вюв2269100 0.3 1019980
15:00+11ю1270100 0.5 1019840
18:00+9вюв1188100 1.1 1018166
21:00+7св1194100 2.7 101958
17 апреля, сб
сб1700:00+7всв1294100 0.1 101977
03:00+6в119396 0.1 101816
06:00+5всв2294100 0.0 101716
09:00+8всв2489100 0.0 1016449
12:00+11всв3474100 0.1 1015867
15:00+12в3470100 0.1 1014940
18:00+12вюв347659 0.0 1013731
21:00+8в228918 0.0 101313
18 апреля, вс
вс1800:00+7вюв22935 0.0 101316
03:00+7вюв22943 0.0 101315
06:00+7в229618 0.0 101230
09:00+10вюв228628 0.0 1013309
12:00+15ю236991 0.0 10131068
15:00+16ю1368100 0.0 1012992
18:00+14юв1177100 0.1 1012352
21:00+9ююв1195100 0.1 101417
19 апреля, пн
пн1900:00+10вюв119178 0.1 101311
03:00+8св119735 0.1 101212
06:00+9ссв119690 0.1 101037
09:00+11зюз228679 0.1 1010239
12:00+15з34640 0.5 10081119
15:00+16зюз575321 1.9 10061641
18:00+16юз5105088 0.4 10042358
21:00+9сз228246 1.4 100730
20 апреля, вт
вт2000:00+5зсз488911 0.0 1009284
03:00+6сз51387100 0.0 1010545
06:00+5сз5138974 0.0 1011443
09:00+8сз612714 0.0 1012633
12:00+13зсз67555 0.0 10131187
15:00+15зсз56505 0.0 10131651
18:00+15з35474 0.0 10121694
21:00+9юз11685 0.0 101411